timestamp,surface_pressure_avg,surface_temp_avg,battery_voltage,lat,long
2023-07-31 00:09:00+00:00,328.9163,19.7,12.41,47.84626,-54.09684
2023-07-31 00:19:00+00:00,326.883,19.86,12.49,47.84626,-54.09684
2023-07-31 00:29:00+00:00,309.2546,19.9,12.49,47.84626,-54.09684
2023-07-31 00:39:00+00:00,300.7447,19.68,12.49,47.84626,-54.09684
2023-07-31 00:49:00+00:00,302.4347,19.67,12.49,47.84626,-54.09684
2023-07-31 00:59:00+00:00,294.093,19.93,12.49,47.84626,-54.09684
2023-07-31 01:09:00+00:00,279.9464,19.9,12.49,47.84626,-54.09684
2023-07-31 01:19:00+00:00,277.3081,19.5,12.41,47.84626,-54.09684
2023-07-31 01:29:00+00:00,274.8847,19.64,12.41,47.84626,-54.09684
2023-07-31 01:39:00+00:00,268.6347,19.87,12.41,47.84626,-54.09684
2023-07-31 01:49:00+00:00,262.3314,19.43,12.41,47.84626,-54.09684
2023-07-31 01:59:00+00:00,257.1297,19.03,12.41,47.84626,-54.09684
2023-07-31 02:09:00+00:00,254.8148,19.51,12.41,47.84626,-54.09684
2023-07-31 02:19:01+00:00,250.5581,19.64,12.41,47.84626,-54.09684
2023-07-31 02:29:01+00:00,242.9414,19.53,12.41,47.84626,-54.09684
2023-07-31 02:39:01+00:00,232.7298,19.27,12.41,47.84626,-54.09684
2023-07-31 02:49:01+00:00,232.2348,19.56,12.41,47.84626,-54.09684
2023-07-31 02:59:01+00:00,231.8664,19.7,12.41,47.84626,-54.09684
2023-07-31 03:09:01+00:00,225.1131,19.7,12.41,47.84626,-54.09684
2023-07-31 03:19:01+00:00,218.9215,19.78,12.41,47.84626,-54.09684
2023-07-31 03:29:01+00:00,224.1565,19.78,12.41,47.84626,-54.09684
2023-07-31 03:39:01+00:00,225.1348,19.8,12.41,47.84626,-54.09684
2023-07-31 03:49:01+00:00,213.9681,19.75,12.41,47.84626,-54.09684
2023-07-31 03:59:01+00:00,208.0582,19.3,12.41,47.84626,-54.09684
2023-07-31 04:09:01+00:00,213.9831,19.2,12.41,47.84626,-54.09684
2023-07-31 04:19:00+00:00,210.9481,19.16,12.41,47.84626,-54.09684
2023-07-31 04:29:00+00:00,202.4198,19.4,12.41,47.84626,-54.09684
2023-07-31 04:39:00+00:00,203.6415,19.1,12.41,47.84626,-54.09684
2023-07-31 04:49:00+00:00,209.2614,18.96,12.41,47.84626,-54.09684
2023-07-31 04:59:00+00:00,205.8514,19.45,12.41,47.84626,-54.09684
2023-07-31 05:09:00+00:00,200.8464,19.6,12.41,47.84626,-54.09684
2023-07-31 05:19:00+00:00,204.5265,19.5,12.41,47.84626,-54.09684
2023-07-31 05:29:00+00:00,205.2448,19.4,12.41,47.84626,-54.09684
2023-07-31 05:39:00+00:00,208.9448,19.4,12.41,47.84626,-54.09684
2023-07-31 05:49:00+00:00,215.9098,19.2,12.41,47.84626,-54.09684
2023-07-31 05:59:00+00:00,217.4015,19.27,12.41,47.84626,-54.09684
2023-07-31 06:09:00+00:00,219.5414,19.4,12.41,47.84626,-54.09684
2023-07-31 06:19:00+00:00,225.9115,19.05,12.41,47.84626,-54.09684
2023-07-31 06:29:00+00:00,230.8214,18.9,12.41,47.84626,-54.09684
2023-07-31 06:39:00+00:00,232.2931,18.97,12.41,47.84626,-54.09684
2023-07-31 06:49:00+00:00,240.1781,18.9,12.41,47.84626,-54.09684
2023-07-31 06:59:00+00:00,247.8798,18.8,12.41,47.84626,-54.09684
2023-07-31 07:09:00+00:00,252.7431,18.78,12.41,47.84626,-54.09684
2023-07-31 07:19:01+00:00,257.8664,18.71,12.41,47.84626,-54.09684
2023-07-31 07:29:01+00:00,267.2081,18.73,12.41,47.84626,-54.09684
2023-07-31 07:39:01+00:00,275.7664,18.7,12.41,47.84626,-54.09684
2023-07-31 07:49:01+00:00,281.4731,18.6,12.41,47.84626,-54.09684
2023-07-31 07:59:01+00:00,285.9047,18.6,12.41,47.84626,-54.09684
2023-07-31 08:09:01+00:00,298.1313,18.6,12.41,47.84626,-54.09684
2023-07-31 08:19:00+00:00,308.7664,18.5,12.41,47.84626,-54.09684
2023-07-31 08:29:00+00:00,310.3381,18.54,12.41,47.84626,-54.09684
2023-07-31 08:39:00+00:00,311.58799999999997,18.6,12.41,47.84626,-54.09684
2023-07-31 08:49:00+00:00,317.9313,18.6,12.41,47.84626,-54.09684
2023-07-31 08:59:00+00:00,325.363,18.5,12.41,47.84626,-54.09684
2023-07-31 09:09:00+00:00,326.0613,18.48,12.41,47.84626,-54.09684
2023-07-31 09:19:00+00:00,329.0613,18.62,12.41,47.84626,-54.09684
2023-07-31 09:29:00+00:00,333.3414,18.6,12.41,47.84626,-54.09684
2023-07-31 09:39:00+00:00,332.4996,18.4,12.41,47.84626,-54.09684
2023-07-31 09:49:00+00:00,333.2229,18.4,12.41,47.84626,-54.09684
2023-07-31 09:59:00+00:00,337.4313,18.55,12.41,47.84626,-54.09684
2023-07-31 10:09:00+00:00,336.2363,18.4,12.41,47.84626,-54.09684
2023-07-31 10:19:01+00:00,332.4646,18.4,12.49,47.84626,-54.09684
2023-07-31 10:29:01+00:00,333.7963,18.5,12.49,47.84626,-54.09684
2023-07-31 10:39:01+00:00,337.5164,18.5,12.49,47.84626,-54.09684
2023-07-31 10:49:01+00:00,332.7614,18.5,12.49,47.84626,-54.09684
2023-07-31 10:59:01+00:00,329.11800000000005,18.56,12.49,47.84626,-54.09684
2023-07-31 11:09:01+00:00,332.1996,18.5,12.49,47.84626,-54.09684
2023-07-31 11:19:00+00:00,332.3013,18.4,12.41,47.84626,-54.09684
2023-07-31 11:29:00+00:00,326.7663,18.59,12.41,47.84626,-54.09684
2023-07-31 11:39:00+00:00,324.3314,18.7,12.41,47.84626,-54.09684
2023-07-31 11:49:00+00:00,326.2163,18.4,12.41,47.84626,-54.09684
2023-07-31 11:59:00+00:00,322.358,18.45,12.41,47.84626,-54.09684
2023-07-31 12:09:00+00:00,313.9031,18.75,12.41,47.84626,-54.09684
2023-07-31 12:19:00+00:00,309.7096,18.5,12.57,47.84626,-54.09684
2023-07-31 12:29:00+00:00,309.733,18.4,12.57,47.84626,-54.09684
2023-07-31 12:39:00+00:00,300.808,18.66,12.57,47.84626,-54.09684
2023-07-31 12:49:00+00:00,285.3781,18.8,12.57,47.84626,-54.09684
2023-07-31 12:59:00+00:00,280.373,18.63,12.57,47.84626,-54.09684
2023-07-31 13:09:00+00:00,279.5848,18.55,12.57,47.84626,-54.09684
2023-07-31 13:19:00+00:00,269.798,18.95,12.49,47.84626,-54.09684
2023-07-31 13:29:00+00:00,256.3931,18.9,12.49,47.84626,-54.09684
2023-07-31 13:39:00+00:00,252.6764,18.62,12.49,47.84626,-54.09684
2023-07-31 13:49:00+00:00,250.998,18.57,12.49,47.84626,-54.09684
2023-07-31 13:59:00+00:00,241.3531,19.19,12.49,47.84626,-54.09684
2023-07-31 14:09:00+00:00,231.1948,19.13,12.49,47.84626,-54.09684
2023-07-31 14:19:01+00:00,229.1347,18.8,12.57,47.84626,-54.09684
2023-07-31 14:29:01+00:00,224.3047,18.86,12.57,47.84626,-54.09684
2023-07-31 14:39:01+00:00,216.4148,19.35,12.57,47.84626,-54.09684
2023-07-31 14:49:01+00:00,213.9365,19.2,12.57,47.84626,-54.09684
2023-07-31 14:59:01+00:00,212.8681,18.8,12.57,47.84626,-54.09684
2023-07-31 15:09:01+00:00,208.7798,19.37,12.57,47.84626,-54.09684
2023-07-31 15:19:01+00:00,206.8615,19.4,12.65,47.84626,-54.09684
2023-07-31 15:29:01+00:00,205.9665,19.3,12.65,47.84626,-54.09684
2023-07-31 15:39:01+00:00,202.0098,19.35,12.65,47.84626,-54.09684
2023-07-31 15:49:01+00:00,200.7848,19.3,12.65,47.84626,-54.09684
2023-07-31 15:59:01+00:00,199.3415,19.0,12.65,47.84626,-54.09684
2023-07-31 16:09:01+00:00,197.0631,18.97,12.65,47.84626,-54.09684
2023-07-31 16:19:00+00:00,197.4148,18.9,12.57,47.84626,-54.09684
2023-07-31 16:29:00+00:00,195.8448,18.9,12.57,47.84626,-54.09684
2023-07-31 16:39:00+00:00,193.4447,18.9,12.57,47.84626,-54.09684
2023-07-31 16:49:00+00:00,195.6331,18.9,12.57,47.84626,-54.09684
2023-07-31 16:59:00+00:00,198.5181,18.9,12.57,47.84626,-54.09684
2023-07-31 17:09:00+00:00,198.6614,18.9,12.57,47.84626,-54.09684
2023-07-31 17:19:00+00:00,202.2165,18.89,12.89,47.84626,-54.09684
2023-07-31 17:29:00+00:00,206.3215,18.86,12.89,47.84626,-54.09684
2023-07-31 17:39:00+00:00,207.1348,18.87,12.89,47.84626,-54.09684
2023-07-31 17:49:00+00:00,210.9314,18.87,12.89,47.84626,-54.09684
2023-07-31 17:59:00+00:00,217.4614,18.86,12.89,47.84626,-54.09684
2023-07-31 18:09:00+00:00,223.5897,18.88,12.89,47.84626,-54.09684
2023-07-31 18:19:00+00:00,226.6647,18.89,12.73,47.84626,-54.09684
2023-07-31 18:29:00+00:00,231.0431,18.9,12.73,47.84626,-54.09684
2023-07-31 18:39:00+00:00,240.9281,18.9,12.73,47.84626,-54.09684
2023-07-31 18:49:00+00:00,247.6431,18.9,12.73,47.84626,-54.09684
2023-07-31 18:59:00+00:00,249.273,18.96,12.73,47.84626,-54.09684
2023-07-31 19:09:00+00:00,252.9714,18.99,12.73,47.84626,-54.09684
2023-07-31 19:19:00+00:00,262.688,18.99,12.73,47.84626,-54.09684
2023-07-31 19:29:00+00:00,269.5815,18.99,12.73,47.84626,-54.09684
2023-07-31 19:39:00+00:00,273.243,19.0,12.73,47.84626,-54.09684
2023-07-31 19:49:00+00:00,280.2847,19.0,12.73,47.84626,-54.09684
2023-07-31 19:59:00+00:00,291.5413,18.9,12.73,47.84626,-54.09684
2023-07-31 20:09:00+00:00,299.2697,18.89,12.73,47.84626,-54.09684
2023-07-31 20:19:00+00:00,304.188,18.9,12.65,47.84626,-54.09684
2023-07-31 20:29:00+00:00,311.4413,18.8,12.65,47.84626,-54.09684
2023-07-31 20:39:00+00:00,323.3947,18.7,12.65,47.84626,-54.09684
2023-07-31 20:49:00+00:00,332.5763,18.6,12.65,47.84626,-54.09684
2023-07-31 20:59:00+00:00,334.7213,18.69,12.65,47.84626,-54.09684
2023-07-31 21:09:00+00:00,338.9764,18.7,12.65,47.84626,-54.09684
2023-07-31 21:19:00+00:00,349.5247,18.7,12.57,47.84626,-54.09684
2023-07-31 21:29:00+00:00,354.5813,18.62,12.57,47.84626,-54.09684
2023-07-31 21:39:00+00:00,354.43800000000016,18.7,12.57,47.84626,-54.09684
2023-07-31 21:49:00+00:00,359.5062,18.7,12.57,47.84626,-54.09684
2023-07-31 21:59:00+00:00,367.8846,18.6,12.57,47.84626,-54.09684
2023-07-31 22:09:00+00:00,367.2546,18.68,12.57,47.84626,-54.09684
2023-07-31 22:19:00+00:00,368.3329,18.7,12.49,47.84626,-54.09684
2023-07-31 22:29:00+00:00,374.8296,18.69,12.49,47.84626,-54.09684
2023-07-31 22:39:00+00:00,376.55300000000005,18.7,12.49,47.84626,-54.09684
2023-07-31 22:49:00+00:00,370.7579,18.86,12.49,47.84626,-54.09684
2023-07-31 22:59:00+00:00,371.7446,18.85,12.49,47.84626,-54.09684
2023-07-31 23:09:00+00:00,374.7845,18.79,12.49,47.84626,-54.09684
2023-07-31 23:19:00+00:00,369.9229,18.87,12.49,47.84626,-54.09684
2023-07-31 23:29:00+00:00,365.2696,18.79,12.49,47.84626,-54.09684
2023-07-31 23:39:00+00:00,367.7795,18.6,12.49,47.84626,-54.09684
2023-07-31 23:49:00+00:00,370.4362,18.69,12.49,47.84626,-54.09684
2023-07-31 23:59:00+00:00,363.9796,18.7,12.49,47.84626,-54.09684
